When you browse on this site, cookies collect data to enhance your experience and personalize the content and advertising you see.
Visit our Privacy Policy to learn more. By continuing to use the site, you agree to this use of cookies and data.
  • In Slovakia
  • List of Countries
  • For 7 days
  • Water Temperature
  • Satellite Maps
  • Weather Map
  • Weather Widgets
  • user-avatar
    Login

    Hourly Weather Abovyan

    Today, 23 January, Wednesday

    Time Temperature Precipitation Wind Pressure Humidity
    00:00 -2°C° 0 mm 1 mps 671 mmHg 59%
    01:00 -2°C° 0 mm 1 mps 671 mmHg 59%
    02:00 -2°C° 0 mm 1 mps 671 mmHg 59%
    03:00 -2°C° 0 mm 1 mps 670 mmHg 61%
    04:00 -2°C° 0 mm 1 mps 671 mmHg 61%
    05:00 -2°C° 0 mm 1 mps 671 mmHg 62%
    06:00 -4°C° 0 mm 2 mps 671 mmHg 62%
    07:00 -3°C° 0 mm 2 mps 671 mmHg 60%
    08:00 -3°C° 0 mm 2 mps 672 mmHg 58%
    09:00 -2°C° 0 mm 2 mps 672 mmHg 56%
    10:00 -1°C° 0 mm 2 mps 672 mmHg 54%
    11:00 +1°C° 0 mm 2 mps 672 mmHg 53%
    12:00 +2°C° 0 mm 2 mps 672 mmHg 51%
    13:00 +3°C° 0 mm 2 mps 671 mmHg 51%
    14:00 +3°C° 0 mm 2 mps 671 mmHg 51%
    15:00 +3°C° 0 mm 2 mps 671 mmHg 51%
    16:00 +2°C° 0 mm 2 mps 671 mmHg 52%
    17:00 +1°C° 0 mm 2 mps 672 mmHg 54%
    18:00 -2°C° 0 mm 2 mps 672 mmHg 56%
    19:00 -2°C° 0 mm 2 mps 672 mmHg 56%
    20:00 -2°C° 0 mm 2 mps 672 mmHg 57%
    21:00 -2°C° 0 mm 2 mps 673 mmHg 58%
    22:00 -3°C° 0 mm 2 mps 673 mmHg 60%
    23:00 -3°C° 0 mm 2 mps 673 mmHg 61%

    Tomorrow, 24 January, Thursday

    Time Temperature Precipitation Wind Pressure Humidity
    00:00 -3°C° 0 mm 2 mps 673 mmHg 63%
    01:00 -3°C° 0 mm 2 mps 673 mmHg 64%
    02:00 -3°C° 0 mm 2 mps 673 mmHg 64%
    03:00 -4°C° 0 mm 2 mps 673 mmHg 65%
    04:00 -4°C° 0 mm 2 mps 673 mmHg 64%
    05:00 -4°C° 0 mm 2 mps 673 mmHg 64%
    06:00 -4°C° 0 mm 2 mps 673 mmHg 64%
    07:00 -3°C° 0 mm 2 mps 673 mmHg 62%
    08:00 -2°C° 0 mm 2 mps 673 mmHg 60%
    09:00 -2°C° 0 mm 2 mps 673 mmHg 57%
    10:00 +1°C° 0 mm 2 mps 673 mmHg 56%
    11:00 +1°C° 0 mm 3 mps 672 mmHg 55%
    12:00 +2°C° 0 mm 3 mps 672 mmHg 54%
    13:00 +2°C° 0 mm 3 mps 672 mmHg 53%
    14:00 +2°C° 0 mm 3 mps 671 mmHg 53%
    15:00 +3°C° 0 mm 3 mps 671 mmHg 53%
    16:00 +2°C° 0 mm 3 mps 671 mmHg 55%
    17:00 +1°C° 0 mm 3 mps 671 mmHg 56%
    18:00 0°C° 0 mm 3 mps 672 mmHg 58%
    19:00 +1°C° 0 mm 2 mps 672 mmHg 59%
    20:00 -1°C° 0 mm 2 mps 672 mmHg 60%
    21:00 -1°C° 0 mm 2 mps 672 mmHg 61%
    22:00 -1°C° 0 mm 2 mps 671 mmHg 62%
    23:00 -1°C° 0 mm 2 mps 671 mmHg 62%

    Day after tomorrow, 25 January, Friday

    Time Temperature Precipitation Wind Pressure Humidity
    00:00 -2°C° 0 mm 2 mps 671 mmHg 62%
    01:00 -1°C° 0 mm 2 mps 671 mmHg 62%
    02:00 -1°C° 0 mm 2 mps 671 mmHg 62%
    03:00 -1°C° 0 mm 2 mps 671 mmHg 62%
    04:00 -1°C° 0 mm 2 mps 670 mmHg 62%
    05:00 -1°C° 0 mm 2 mps 670 mmHg 63%
    06:00 -1°C° 0 mm 2 mps 669 mmHg 63%
    07:00 -1°C° 0.2 mm 2 mps 669 mmHg 64%
    08:00 +1°C° 0.2 mm 2 mps 670 mmHg 65%
    09:00 +2°C° 0.2 mm 1 mps 670 mmHg 65%
    10:00 +2°C° 0.1 mm 2 mps 670 mmHg 65%
    11:00 +3°C° 0.1 mm 2 mps 670 mmHg 66%
    12:00 +4°C° 0.1 mm 2 mps 669 mmHg 66%
    13:00 +4°C° 0.1 mm 2 mps 669 mmHg 65%
    14:00 +3°C° 0.1 mm 3 mps 669 mmHg 63%
    15:00 +4°C° 0.1 mm 3 mps 668 mmHg 62%
    16:00 +3°C° 0 mm 3 mps 669 mmHg 64%
    17:00 +3°C° 0 mm 2 mps 669 mmHg 65%
    18:00 +2°C° 0 mm 2 mps 669 mmHg 67%
    19:00 +2°C° 0 mm 2 mps 670 mmHg 67%
    20:00 +1°C° 0 mm 2 mps 670 mmHg 67%
    21:00 +1°C° 0 mm 2 mps 670 mmHg 68%
    22:00 +1°C° 0 mm 2 mps 670 mmHg 68%
    23:00 +1°C° 0 mm 2 mps 670 mmHg 68%

    26 January, Saturday

    Time Temperature Precipitation Wind Pressure Humidity
    00:00 +1°C° 0 mm 2 mps 670 mmHg 69%
    01:00 -1°C° 0 mm 2 mps 670 mmHg 69%
    02:00 -1°C° 0 mm 2 mps 670 mmHg 69%
    03:00 -1°C° 0 mm 2 mps 670 mmHg 69%
    04:00 -1°C° 0 mm 2 mps 670 mmHg 69%
    05:00 -1°C° 0 mm 2 mps 669 mmHg 69%
    06:00 -1°C° 0 mm 2 mps 669 mmHg 69%
    07:00 -1°C° 0 mm 2 mps 670 mmHg 67%
    08:00 +1°C° 0 mm 2 mps 670 mmHg 65%
    09:00 +2°C° 0 mm 2 mps 670 mmHg 62%
    10:00 +2°C° 0 mm 3 mps 670 mmHg 59%
    11:00 +3°C° 0 mm 3 mps 669 mmHg 55%
    12:00 +5°C° 0 mm 3 mps 669 mmHg 52%
    13:00 +5°C° 0 mm 3 mps 669 mmHg 51%
    14:00 +5°C° 0 mm 3 mps 668 mmHg 51%
    15:00 +7°C° 0 mm 3 mps 668 mmHg 50%
    16:00 +5°C° 0.1 mm 3 mps 668 mmHg 53%
    17:00 +4°C° 0.1 mm 3 mps 668 mmHg 57%
    18:00 +3°C° 0.1 mm 3 mps 668 mmHg 60%
    19:00 +3°C° 0.1 mm 3 mps 668 mmHg 61%
    20:00 +3°C° 0.1 mm 3 mps 668 mmHg 63%
    21:00 +2°C° 0.1 mm 3 mps 668 mmHg 64%
    22:00 +2°C° 0.1 mm 3 mps 667 mmHg 66%
    23:00 +2°C° 0.1 mm 3 mps 667 mmHg 68%

    27 January, Sunday

    Time Temperature Precipitation Wind Pressure Humidity
    00:00 +2°C° 0.1 mm 3 mps 667 mmHg 70%
    01:00 +2°C° 0.1 mm 3 mps 667 mmHg 71%
    02:00 +2°C° 0.1 mm 3 mps 667 mmHg 72%
    03:00 +2°C° 0.1 mm 3 mps 667 mmHg 73%
    04:00 +2°C° 0.1 mm 3 mps 666 mmHg 74%
    05:00 +2°C° 0.1 mm 3 mps 666 mmHg 74%
    06:00 +1°C° 0.1 mm 3 mps 666 mmHg 74%
    07:00 +2°C° 0.2 mm 3 mps 666 mmHg 73%
    08:00 +3°C° 0.2 mm 3 mps 666 mmHg 73%
    09:00 +3°C° 0.2 mm 3 mps 666 mmHg 72%
    10:00 +4°C° 0.3 mm 3 mps 666 mmHg 69%
    11:00 +7°C° 0.3 mm 3 mps 666 mmHg 67%
    12:00 +8°C° 0.3 mm 3 mps 666 mmHg 64%
    13:00 +8°C° 0.1 mm 3 mps 666 mmHg 61%
    14:00 +9°C° 0.1 mm 3 mps 665 mmHg 59%
    15:00 +10°C° 0.1 mm 4 mps 665 mmHg 56%
    16:00 +8°C° 0 mm 3 mps 666 mmHg 58%
    17:00 +7°C° 0 mm 2 mps 666 mmHg 60%
    18:00 +6°C° 0 mm 2 mps 667 mmHg 63%
    19:00 +5°C° 0 mm 2 mps 667 mmHg 64%
    20:00 +5°C° 0 mm 2 mps 667 mmHg 64%
    21:00 +4°C° 0 mm 2 mps 668 mmHg 65%
    22:00 +4°C° 0 mm 2 mps 668 mmHg 67%
    23:00 +4°C° 0 mm 2 mps 668 mmHg 68%

    28 January, Monday

    Time Temperature Precipitation Wind Pressure Humidity
    00:00 +3°C° 0 mm 2 mps 668 mmHg 69%
    01:00 +3°C° 0 mm 2 mps 667 mmHg 69%
    02:00 +3°C° 0 mm 2 mps 667 mmHg 69%
    03:00 +2°C° 0 mm 2 mps 667 mmHg 70%
    04:00 +2°C° 0 mm 2 mps 667 mmHg 69%
    05:00 +2°C° 0 mm 2 mps 667 mmHg 69%
    06:00 0°C° 0 mm 3 mps 666 mmHg 69%
    07:00 +2°C° 0 mm 2 mps 666 mmHg 66%
    08:00 +3°C° 0 mm 2 mps 666 mmHg 63%
    09:00 +3°C° 0 mm 2 mps 665 mmHg 60%
    10:00 +4°C° 0.1 mm 2 mps 665 mmHg 59%
    11:00 +5°C° 0.1 mm 2 mps 665 mmHg 58%
    12:00 +6°C° 0.1 mm 1 mps 664 mmHg 57%
    13:00 +6°C° 0.3 mm 1 mps 664 mmHg 59%
    14:00 +6°C° 0.3 mm 1 mps 664 mmHg 60%
    15:00 +6°C° 0.3 mm 1 mps 664 mmHg 62%
    16:00 +5°C° 0.2 mm 1 mps 664 mmHg 64%
    17:00 +5°C° 0.2 mm 1 mps 665 mmHg 66%
    18:00 +4°C° 0.2 mm 1 mps 665 mmHg 68%
    19:00 +4°C° 0.1 mm 1 mps 666 mmHg 69%
    20:00 +3°C° 0.1 mm 1 mps 666 mmHg 70%
    21:00 +3°C° 0.1 mm 1 mps 667 mmHg 71%
    22:00 +3°C° 0.2 mm 1 mps 667 mmHg 73%
    23:00 +3°C° 0.2 mm 1 mps 668 mmHg 75%
    Show more